Bennington, NE

5:18 AM CST on January 24, 2017 (GMT -0600)
Blair Municipal

Weather History for KBTA - November, 2013

Change the Weather History Date:

Thursday, November 21, 2013

  Actual Average (KOMA) Record (KOMA)
Temperature  
Mean Temperature 29 °F -  
Max Temperature 37 °F 47 °F 72 °F (2012)
Min Temperature 21 °F 24 °F -3 °F (1937)
Degree Days  
Heating Degree Days 36    
Moisture  
Dew Point 23 °F    
Average Humidity 79    
Maximum Humidity 91    
Minimum Humidity 64    
Precipitation  
Precipitation 0.00 in - - ()
Sea Level Pressure  
Sea Level Pressure 30.25 in    
Wind  
Wind Speed 16 mph (NNW)    
Max Wind Speed 28 mph    
Max Gust Speed 36 mph    
Visibility 8 miles    
Events Snow    
Averages and records for this station are not official NWS values.
T = Trace of Precipitation, MM = Missing Value Source: NWS Daily Summary

Daily Weather History Graph

Daily Weather History Graph

Search for Another Location

Airport or City:

Trip Planner

Search our weather history database for the weather conditions in past years. The results will help you decide how hot, cold, wet, or windy it might be!

Date:

Astronomy

Nov. 21, 2013 Rise Set
Actual Time 7:20 AM CST 5:00 PM CST
Civil Twilight 6:50 AM CST 5:30 PM CST
Nautical Twilight 6:16 AM CST 6:04 PM CST
Astronomical Twilight 5:43 AM CST 6:37 PM CST
Moon 8:38 PM CST (11/21) 10:27 AM CST (11/21)
Length of Visible Light 10h 40m
Length of Day
9h 39m
Waning Gibbous, 85% of the Moon is Illuminated
Nov 21
Waning Gibbous
Nov 25
Last Quarter
Dec 2
New
Dec 9
First Quarter
Dec 17
Full

Hourly Weather History & Observations

Time (CST) Temp. Windchill Dew Point Humidity Pressure Visibility Wind Dir Wind Speed Gust Speed Precip Events Conditions
12:15 AM 37.4 °F - 34.0 °F 87% 29.94 in 10.0 mi Calm Calm - N/A   Clear
12:35 AM 37.2 °F 34.7 °F 33.8 °F 87% 29.95 in 10.0 mi NNE 3.5 mph - N/A   Clear
12:55 AM 35.4 °F 29.0 °F 32.7 °F 90% 29.96 in 10.0 mi North 8.1 mph - N/A   Clear
1:15 AM 35.6 °F 30.7 °F 32.9 °F 90% 29.98 in 10.0 mi NW 5.8 mph - N/A   Clear
1:35 AM 35.1 °F 28.6 °F 32.7 °F 91% 29.99 in 10.0 mi NNW 8.1 mph - N/A   Clear
1:55 AM 35.8 °F 30.1 °F 33.1 °F 90% 30.00 in 10.0 mi NNW 6.9 mph - N/A   Clear
2:15 AM 34.5 °F 26.2 °F 32.0 °F 90% 30.01 in 10.0 mi NW 11.5 mph - N/A   Scattered Clouds
2:35 AM 34.3 °F 23.9 °F 31.5 °F 89% 30.01 in 10.0 mi NNW 17.3 mph - N/A   Overcast
2:55 AM 34.2 °F 24.0 °F 30.7 °F 87% 30.02 in 10.0 mi NNW 16.1 mph - N/A   Overcast
3:15 AM 34.2 °F 24.0 °F 30.7 °F 87% 30.03 in 10.0 mi NNW 16.1 mph 20.7 mph N/A   Overcast
3:35 AM 33.8 °F 21.9 °F 30.2 °F 87% 30.03 in 10.0 mi NNW 21.9 mph 27.6 mph N/A   Overcast
3:55 AM 33.4 °F 23.1 °F 30.2 °F 88% 30.05 in 7.0 mi NNW 16.1 mph 23.0 mph N/A   Overcast
4:15 AM 33.4 °F 23.1 °F 30.2 °F 88% 30.06 in 7.0 mi NNW 16.1 mph 21.9 mph N/A   Overcast
4:35 AM 33.4 °F 24.3 °F 30.2 °F 88% 30.08 in 7.0 mi North 12.7 mph 26.5 mph N/A   Overcast
4:55 AM 33.3 °F 21.5 °F 30.2 °F 89% 30.08 in 5.0 mi NNW 20.7 mph 28.8 mph N/A   Overcast
5:15 AM 33.3 °F 20.3 °F 30.6 °F 90% 30.08 in 7.0 mi North 25.3 mph 34.5 mph N/A   Overcast
5:35 AM 33.1 °F 20.3 °F 30.6 °F 90% 30.10 in 7.0 mi North 24.2 mph 29.9 mph N/A   Overcast
5:55 AM 32.9 °F 20.1 °F 30.2 °F 90% 30.11 in 5.0 mi NNW 24.2 mph 32.2 mph N/A   Overcast
6:15 AM 32.5 °F 20.2 °F 30.2 °F 91% 30.13 in 5.0 mi NNW 21.9 mph 31.1 mph N/A   Overcast
6:35 AM 32.4 °F 18.9 °F 30.0 °F 91% 30.15 in 5.0 mi North 26.5 mph - N/A   Overcast
6:55 AM 32.0 °F 20.5 °F 27.9 °F 85% 30.15 in 10.0 mi NNW 18.4 mph 27.6 mph N/A   Overcast
7:15 AM 31.5 °F 20.5 °F 25.7 °F 79% 30.17 in 10.0 mi NNW 16.1 mph 24.2 mph N/A   Overcast
7:35 AM 30.7 °F 18.8 °F 24.6 °F 78% 30.19 in 10.0 mi NNW 18.4 mph 23.0 mph N/A   Overcast
7:55 AM 30.2 °F 17.8 °F 23.9 °F 77% 30.20 in 10.0 mi NNW 19.6 mph 26.5 mph N/A   Overcast
8:15 AM 30.2 °F 18.5 °F 23.9 °F 77% 30.21 in 10.0 mi NNW 17.3 mph 21.9 mph N/A   Overcast
8:35 AM 30.0 °F 16.9 °F 23.5 °F 77% 30.22 in 10.0 mi NNW 21.9 mph 28.8 mph N/A   Overcast
8:55 AM 29.8 °F 17.3 °F 23.2 °F 76% 30.22 in 10.0 mi NNW 19.6 mph 25.3 mph N/A   Overcast
9:15 AM 29.3 °F 15.6 °F 23.0 °F 77% 30.22 in 10.0 mi North 23.0 mph 35.7 mph N/A   Overcast
9:35 AM 29.1 °F 15.1 °F 22.3 °F 76% 30.23 in 10.0 mi NNW 24.2 mph 31.1 mph N/A   Overcast
9:55 AM 28.4 °F 14.1 °F 21.4 °F 75% 30.23 in 10.0 mi North 24.2 mph 31.1 mph N/A   Overcast
10:15 AM 28.4 °F 13.8 °F 20.8 °F 73% 30.24 in 10.0 mi NNW 25.3 mph 33.4 mph N/A   Overcast
10:35 AM 28.2 °F 13.9 °F 20.3 °F 72% 30.26 in 10.0 mi North 24.2 mph 28.8 mph N/A   Overcast
10:55 AM 27.9 °F 13.1 °F 19.6 °F 71% 30.25 in 10.0 mi North 25.3 mph 33.4 mph N/A   Overcast
11:15 AM 27.7 °F 13.8 °F 19.4 °F 71% 30.26 in 10.0 mi NNW 21.9 mph 26.5 mph N/A   Overcast
11:35 AM 27.5 °F 13.9 °F 19.2 °F 71% 30.27 in 10.0 mi NNW 20.7 mph 28.8 mph N/A   Overcast
11:55 AM 27.5 °F 15.9 °F 18.5 °F 69% 30.27 in 10.0 mi North 15.0 mph 26.5 mph N/A   Overcast
12:15 PM 27.0 °F 13.5 °F 17.6 °F 68% 30.27 in 10.0 mi North 19.6 mph 31.1 mph N/A   Overcast
12:35 PM 26.6 °F 11.7 °F 17.4 °F 68% 30.27 in 10.0 mi NNW 24.2 mph 28.8 mph N/A   Overcast
12:55 PM 26.4 °F 11.8 °F 18.1 °F 71% 30.28 in 10.0 mi North 23.0 mph 28.8 mph N/A   Overcast
1:15 PM 26.4 °F 11.8 °F 17.6 °F 69% 30.28 in 10.0 mi NNW 23.0 mph 29.9 mph N/A   Overcast
1:35 PM 26.6 °F 13.4 °F 16.9 °F 67% 30.28 in 10.0 mi North 18.4 mph 28.8 mph N/A   Overcast
1:55 PM 26.6 °F 13.4 °F 16.0 °F 64% 30.29 in 10.0 mi NNW 18.4 mph 33.4 mph N/A   Overcast
2:15 PM 26.8 °F 11.6 °F 16.2 °F 64% 30.28 in 10.0 mi North 25.3 mph 32.2 mph N/A   Overcast
2:35 PM 26.6 °F 11.7 °F 16.2 °F 65% 30.28 in 10.0 mi North 24.2 mph 32.2 mph N/A Snow Light Snow
2:55 PM 26.2 °F 10.9 °F 16.5 °F 67% 30.29 in 10.0 mi North 25.3 mph 33.4 mph N/A   Overcast
3:15 PM 25.7 °F 9.6 °F 17.2 °F 70% 30.29 in 5.0 mi North 27.6 mph 33.4 mph N/A Snow Light Snow
3:35 PM 25.7 °F 11.2 °F 17.1 °F 70% 30.31 in 7.0 mi NNW 21.9 mph 31.1 mph N/A   Overcast
3:55 PM 25.3 °F 11.4 °F 17.2 °F 71% 30.32 in 10.0 mi North 19.6 mph 31.1 mph N/A   Overcast
4:15 PM 25.2 °F 9.8 °F 17.8 °F 74% 30.33 in 10.0 mi North 24.2 mph 35.7 mph N/A   Overcast
4:35 PM 25.3 °F 10.0 °F 18.5 °F 75% 30.34 in 10.0 mi NNW 24.2 mph 28.8 mph N/A   Overcast
4:55 PM 25.5 °F 10.3 °F 18.1 °F 74% 30.35 in 10.0 mi North 24.2 mph 28.8 mph N/A   Overcast
5:15 PM 26.2 °F 13.0 °F 17.8 °F 70% 30.35 in 10.0 mi NNW 18.4 mph 28.8 mph N/A   Overcast
5:35 PM 26.4 °F 11.2 °F 17.8 °F 70% 30.36 in 7.0 mi NNW 25.3 mph 35.7 mph N/A Snow Light Snow
5:55 PM 26.4 °F 12.5 °F 18.1 °F 71% 30.37 in 10.0 mi NNW 20.7 mph 26.5 mph N/A Snow Light Snow
6:15 PM 26.1 °F 12.0 °F 18.0 °F 71% 30.38 in 5.0 mi NNW 20.7 mph 33.4 mph N/A Snow Light Snow
6:35 PM 25.5 °F 11.3 °F 18.5 °F 75% 30.39 in 4.0 mi North 20.7 mph 29.9 mph N/A Snow Light Snow
6:55 PM 25.2 °F 11.6 °F 18.3 °F 75% 30.40 in 7.0 mi NNW 18.4 mph 32.2 mph N/A Snow Light Snow
7:15 PM 24.4 °F 10.6 °F 18.5 °F 78% 30.41 in 3.0 mi North 18.4 mph 27.6 mph N/A Snow Light Snow
7:35 PM 24.3 °F 10.0 °F 18.0 °F 77% 30.41 in 4.0 mi NNW 19.6 mph 27.6 mph N/A Snow Light Snow
7:55 PM 23.4 °F 7.7 °F 18.0 °F 80% 30.42 in 2.5 mi North 23.0 mph 32.2 mph N/A Snow Light Snow
8:15 PM 23.0 °F 8.3 °F 19.0 °F 85% 30.43 in 2.5 mi NNW 19.6 mph 25.3 mph N/A Snow Light Snow
8:35 PM 22.3 °F 7.4 °F 18.5 °F 85% 30.45 in 1.5 mi North 19.6 mph 29.9 mph N/A Snow Light Snow
8:55 PM 21.9 °F 6.2 °F 17.6 °F 83% 30.46 in 2.5 mi NNW 21.9 mph 31.1 mph N/A Snow Light Snow
9:15 PM 21.9 °F 7.8 °F 18.3 °F 86% 30.48 in 2.0 mi NNW 17.3 mph 21.9 mph N/A Snow Light Snow
9:35 PM 21.9 °F 7.8 °F 18.3 °F 86% 30.49 in 1.8 mi NNW 17.3 mph 24.2 mph N/A Snow Light Snow
9:55 PM 21.9 °F 9.2 °F 18.5 °F 87% 30.49 in 2.0 mi NNW 13.8 mph - N/A Snow Light Snow
10:15 PM 22.1 °F 6.8 °F 18.9 °F 87% 30.49 in 1.8 mi North 20.7 mph 25.3 mph N/A Snow Light Snow
10:35 PM 21.6 °F 7.8 °F 18.1 °F 87% 30.50 in 4.0 mi NNW 16.1 mph 23.0 mph N/A Snow Light Snow
10:55 PM 21.7 °F 8.5 °F 18.5 °F 87% 30.51 in 4.0 mi NNW 15.0 mph 18.4 mph N/A Snow Light Snow
11:15 PM 21.6 °F 8.2 °F 17.6 °F 85% 30.52 in 4.0 mi NNW 15.0 mph 21.9 mph N/A Snow Light Snow
11:35 PM 21.2 °F 6.8 °F 17.4 °F 85% 30.52 in 7.0 mi NNW 17.3 mph 24.2 mph N/A Snow Light Snow
11:55 PM 21.2 °F 6.0 °F 16.7 °F 83% 30.54 in 10.0 mi NNW 19.6 mph 23.0 mph N/A   Overcast